Вернуться в каталог

EDRS-C

АктивенСвязьGEO
NORAD 44475·PAYLOAD·🇪🇺 EU

Запущен Aug 6, 2019 с Guiana Space Centre

Loading…

TLE

СвежийSource: Space-Track

Эпоха: Sep 14, 2026, 12:46 UTC

1 44475U 19049A   26257.53206206 -.00000270  00000-0  00000-0 0  9993
2 44475   0.0124 183.2334 0001107 347.2347 157.0850  1.00271718 26108

Отслеживайте EDRS-C в реальном времени с AllMySat

Download on the App Store